EN

Hourly Weather Altschwandi

Today, 17 January, Sunday

Time Temperature Precipitation Wind Pressure Humidity
00:00 -4°C° 0.1 mm 1 mps 683 mmHg 85%
01:00 -5°C° 0 mm 0 mps 682 mmHg 87%
02:00 -4°C° 0.6 mm 1 mps 682 mmHg 91%
03:00 -4°C° 0.6 mm 1 mps 682 mmHg 94%
04:00 -3°C° 0.6 mm 1 mps 681 mmHg 97%
05:00 -5°C° 0.6 mm 2 mps 681 mmHg 97%
06:00 -4°C° 0.6 mm 2 mps 681 mmHg 97%
07:00 -4°C° 0.6 mm 2 mps 681 mmHg 97%
08:00 -4°C° 0.4 mm 3 mps 682 mmHg 97%
09:00 -4°C° 0.4 mm 3 mps 682 mmHg 98%
10:00 -2°C° 0.4 mm 3 mps 682 mmHg 98%
11:00 -2°C° 0.6 mm 3 mps 682 mmHg 98%
12:00 -2°C° 0.6 mm 3 mps 682 mmHg 99%
13:00 -2°C° 0.6 mm 3 mps 682 mmHg 99%
14:00 -2°C° 0.9 mm 3 mps 683 mmHg 99%
15:00 -2°C° 0.9 mm 3 mps 683 mmHg 99%
16:00 -2°C° 0.9 mm 2 mps 683 mmHg 98%
17:00 -2°C° 0.6 mm 2 mps 684 mmHg 98%
18:00 -2°C° 0.6 mm 2 mps 684 mmHg 98%
19:00 -3°C° 0.6 mm 2 mps 685 mmHg 98%
20:00 -3°C° 0.4 mm 2 mps 686 mmHg 98%
21:00 -3°C° 0.4 mm 2 mps 686 mmHg 98%
22:00 -3°C° 0.4 mm 2 mps 686 mmHg 98%
23:00 -3°C° 0.3 mm 2 mps 687 mmHg 98%

Tomorrow, 18 January, Monday

Time Temperature Precipitation Wind Pressure Humidity
00:00 -3°C° 0.3 mm 2 mps 687 mmHg 97%
01:00 -4°C° 0.3 mm 2 mps 688 mmHg 97%
02:00 -4°C° 0.2 mm 2 mps 688 mmHg 97%
03:00 -4°C° 0.2 mm 2 mps 687 mmHg 97%
04:00 -4°C° 0.2 mm 2 mps 687 mmHg 97%
05:00 -4°C° 0.2 mm 2 mps 688 mmHg 97%
06:00 -5°C° 0.2 mm 2 mps 688 mmHg 97%
07:00 -3°C° 0.2 mm 1 mps 688 mmHg 97%
08:00 -2°C° 0.1 mm 1 mps 689 mmHg 96%
09:00 -2°C° 0.1 mm 1 mps 689 mmHg 96%
10:00 -4°C° 0.1 mm 2 mps 689 mmHg 95%
11:00 -1°C° 0 mm 1 mps 689 mmHg 95%
12:00 -1°C° 0 mm 1 mps 689 mmHg 94%
13:00 0°C° 0 mm 1 mps 688 mmHg 94%
14:00 -1°C° 0 mm 1 mps 688 mmHg 94%
15:00 -1°C° 0 mm 1 mps 688 mmHg 94%
16:00 -1°C° 0 mm 1 mps 688 mmHg 95%
17:00 -2°C° 0 mm 1 mps 688 mmHg 94%
18:00 -3°C° 0 mm 1 mps 688 mmHg 93%
19:00 -4°C° 0 mm 1 mps 688 mmHg 92%
20:00 -6°C° 0 mm 1 mps 688 mmHg 91%
21:00 -6°C° 0 mm 1 mps 687 mmHg 89%
22:00 -6°C° 0 mm 1 mps 687 mmHg 88%
23:00 -6°C° 0 mm 1 mps 687 mmHg 86%

Day after tomorrow, 19 January, Tuesday

Time Temperature Precipitation Wind Pressure Humidity
00:00 -6°C° 0 mm 1 mps 687 mmHg 84%
01:00 -6°C° 0 mm 1 mps 687 mmHg 83%
02:00 -6°C° 0 mm 1 mps 686 mmHg 82%
03:00 -6°C° 0 mm 1 mps 685 mmHg 80%
04:00 -6°C° 0 mm 1 mps 685 mmHg 79%
05:00 -6°C° 0 mm 1 mps 685 mmHg 78%
06:00 -7°C° 0 mm 2 mps 684 mmHg 78%
07:00 -7°C° 0 mm 2 mps 684 mmHg 77%
08:00 -3°C° 0 mm 1 mps 684 mmHg 78%
09:00 -2°C° 0 mm 1 mps 684 mmHg 79%
10:00 0°C° 0 mm 1 mps 684 mmHg 80%
11:00 0°C° 0 mm 1 mps 684 mmHg 84%
12:00 -1°C° 0 mm 2 mps 683 mmHg 88%
13:00 +1°C° 0 mm 2 mps 683 mmHg 91%
14:00 +1°C° 0 mm 2 mps 683 mmHg 89%
15:00 +2°C° 0 mm 1 mps 683 mmHg 87%
16:00 +2°C° 0 mm 1 mps 682 mmHg 85%
17:00 -1°C° 0 mm 2 mps 682 mmHg 82%
18:00 -2°C° 0 mm 2 mps 682 mmHg 78%
19:00 -3°C° 0 mm 2 mps 682 mmHg 75%
20:00 -3°C° 0 mm 2 mps 682 mmHg 75%
21:00 -4°C° 0 mm 2 mps 682 mmHg 75%
22:00 -4°C° 0 mm 2 mps 681 mmHg 75%
23:00 -4°C° 0 mm 2 mps 681 mmHg 75%

20 January, Wednesday

Time Temperature Precipitation Wind Pressure Humidity
00:00 -5°C° 0 mm 2 mps 681 mmHg 76%
01:00 -5°C° 0 mm 2 mps 681 mmHg 76%
02:00 -5°C° 0 mm 2 mps 681 mmHg 76%
03:00 -5°C° 0 mm 2 mps 680 mmHg 77%
04:00 -6°C° 0 mm 2 mps 680 mmHg 77%
05:00 -6°C° 0 mm 2 mps 680 mmHg 78%
06:00 -6°C° 0 mm 2 mps 680 mmHg 78%
07:00 -6°C° 0 mm 2 mps 679 mmHg 78%
08:00 -5°C° 0 mm 2 mps 679 mmHg 79%
09:00 -4°C° 0 mm 2 mps 679 mmHg 80%
10:00 -3°C° 0 mm 2 mps 679 mmHg 81%
11:00 -2°C° 0 mm 2 mps 679 mmHg 85%
12:00 +1°C° 0 mm 1 mps 679 mmHg 88%
13:00 +2°C° 0 mm 1 mps 678 mmHg 91%
14:00 -1°C° 0 mm 2 mps 678 mmHg 90%
15:00 -1°C° 0 mm 2 mps 677 mmHg 89%
16:00 -1°C° 0 mm 2 mps 677 mmHg 88%
17:00 -2°C° 0 mm 2 mps 677 mmHg 87%
18:00 -3°C° 0 mm 2 mps 677 mmHg 86%
19:00 -4°C° 0 mm 2 mps 676 mmHg 85%
20:00 -4°C° 0 mm 2 mps 676 mmHg 85%
21:00 -4°C° 0 mm 2 mps 676 mmHg 85%
22:00 -4°C° 0 mm 2 mps 676 mmHg 85%
23:00 -4°C° 0 mm 2 mps 675 mmHg 85%

21 January, Thursday

Time Temperature Precipitation Wind Pressure Humidity
00:00 -4°C° 0 mm 2 mps 675 mmHg 85%
01:00 -4°C° 0 mm 2 mps 675 mmHg 86%
02:00 -4°C° 0 mm 2 mps 675 mmHg 85%
03:00 -3°C° 0 mm 2 mps 675 mmHg 85%
04:00 -3°C° 0 mm 2 mps 675 mmHg 85%
05:00 -3°C° 0 mm 2 mps 674 mmHg 85%
06:00 -4°C° 0 mm 2 mps 674 mmHg 85%
07:00 -4°C° 0 mm 2 mps 674 mmHg 85%
08:00 -3°C° 0 mm 2 mps 674 mmHg 86%
09:00 -2°C° 0 mm 2 mps 674 mmHg 86%
10:00 -1°C° 0 mm 2 mps 675 mmHg 87%
11:00 -1°C° 0 mm 2 mps 675 mmHg 89%
12:00 +1°C° 0 mm 2 mps 675 mmHg 92%
13:00 +2°C° 0 mm 2 mps 675 mmHg 95%
14:00 +2°C° 0 mm 2 mps 675 mmHg 94%
15:00 +3°C° 0 mm 1 mps 675 mmHg 94%
16:00 +3°C° 0 mm 1 mps 675 mmHg 94%
17:00 +1°C° 0 mm 2 mps 675 mmHg 91%
18:00 +1°C° 0 mm 2 mps 675 mmHg 89%
19:00 -1°C° 0 mm 2 mps 675 mmHg 87%
20:00 -1°C° 0 mm 2 mps 674 mmHg 86%
21:00 -1°C° 0 mm 2 mps 674 mmHg 85%
22:00 -2°C° 0 mm 2 mps 674 mmHg 84%
23:00 -2°C° 0 mm 2 mps 673 mmHg 84%

22 January, Friday

Time Temperature Precipitation Wind Pressure Humidity
00:00 -2°C° 0 mm 2 mps 672 mmHg 84%
01:00 -3°C° 0 mm 2 mps 672 mmHg 84%
02:00 -2°C° 0 mm 2 mps 671 mmHg 85%
03:00 -2°C° 0 mm 2 mps 671 mmHg 86%
04:00 +1°C° 0 mm 1 mps 670 mmHg 87%
05:00 0°C° 0.1 mm 1 mps 670 mmHg 88%
06:00 -2°C° 0.1 mm 2 mps 670 mmHg 90%
07:00 -2°C° 0.1 mm 2 mps 670 mmHg 91%
08:00 +1°C° 0 mm 1 mps 669 mmHg 91%
09:00 +1°C° 0 mm 1 mps 669 mmHg 92%
10:00 +2°C° 0 mm 1 mps 669 mmHg 92%
11:00 +2°C° 0.1 mm 1 mps 669 mmHg 94%
12:00 +3°C° 0.1 mm 1 mps 669 mmHg 95%
13:00 +2°C° 0.1 mm 2 mps 669 mmHg 97%
14:00 +2°C° 0.3 mm 2 mps 669 mmHg 97%
15:00 +1°C° 0.3 mm 3 mps 670 mmHg 97%
16:00 0°C° 0.3 mm 3 mps 670 mmHg 97%
17:00 0°C° 0.9 mm 3 mps 671 mmHg 97%
18:00 -1°C° 0.9 mm 3 mps 671 mmHg 97%
19:00 -1°C° 0.9 mm 3 mps 672 mmHg 97%
20:00 -2°C° 0.1 mm 2 mps 672 mmHg 95%
21:00 -3°C° 0.1 mm 2 mps 672 mmHg 94%
22:00 -1°C° 0.1 mm 1 mps 673 mmHg 93%
23:00 -2°C° 0 mm 1 mps 673 mmHg 91%
Show more